Tracking 31027 objects as of 19-Jul-2025
HD Live streaming from Space Station
objects crossing your sky now

THORAD AGENA D DEB

Track THORAD AGENA D DEB now!
10-day predictions


NORAD ID: 6766
Int'l Code: 1970-025NH
Perigee: 818.9 km
Apogee: 928.4 km
Inclination: 100.2 °
Period: 102.3 minutes
Semi major axis: 7244 km
RCS: 0.0383 m2 (small)
Launch date: April 8, 1970
Source: United States (US)
Launch site: AIR FORCE WESTERN TEST RANGE (AFWTR)

Note: This is SATELLITE DEBRIS
Your satellite tracking list
COSMOS 1408 DEB
Track 1 satellite(s)




NASA's NSSDC Master Catalog

Two Line Element Set (TLE):
1 06766U 70025NH  25199.46879139  .00001079  00000-0  65055-3 0  9993
2 06766 100.1808 198.2983 0075610 270.5353  88.7148 14.07919691788511
Source of the keplerian elements: AFSPC